Simultaneous Nadir Overpasses (SNOs) Predictions

Prediction of SNOs between GOES-14 and NOAA-20 Satellite Orbit:

Table of predicted SNOs for the next 14.0 days since TLE Epoch: 11/20/2021
Index Date Time (GOES-14) GOES-14 Lat,Lon NOAA-20 Lat,Lon Distance(km) Time Diff (sec)
1 11/20/2021 08:11:08 0.12,-104.39 -0.38,-102.05 265.88 80
2 11/21/2021 20:33:04 -0.09,-104.16 -0.79,-107.35 364.04 80
3 11/22/2021 20:16:58 -0.10,-104.17 0.22,-102.82 153.88 80
4 11/24/2021 08:38:45 0.07,-104.42 0.92,-108.09 419.17 80
5 11/25/2021 08:17:20 0.09,-104.41 -0.08,-103.55 96.97 80
6 11/27/2021 20:20:29 -0.07,-104.15 -0.13,-104.31 18.36 80
7 11/28/2021 20:04:23 -0.08,-104.16 0.88, -99.77 499.84 80
8 11/30/2021 08:26:12 0.06,-104.43 0.20,-105.06 71.63 80
9 12/01/2021 08:04:46 0.07,-104.42 -0.81,-100.52 444.64 80
10 12/02/2021 20:26:40 -0.05,-104.14 -0.41,-105.81 189.73 80
11 12/03/2021 20:10:35 -0.06,-104.15 0.60,-101.27 327.91 80
